Location: Doschendorf
(50.0069°N, 11.0602°E)
Time: 13:21:30
(UTC+00:00)

Okean O Rocket - Pass Details

Date: 17 November 2019
Orbit: 622 x 645 km, 98.2° (Epoch: 07 December)

Event Time Altitude Azimuth Distance (km) Brightness Sun altitude
Rises 16:39:43 0° 195° (SSW) 2,922 5.5 -11.2°
Reaches altitude 10° 16:42:12 10° 207° (SSW) 2,015 4.8 -11.6°
Maximum altitude 16:45:55 27° 265° (W) 1,226 4.0 -12.2°
Drops below altitude 10° 16:49:40 10° 324° (NW) 2,017 4.5 -12.7°
Sets 16:52:09 0° 337° (NNW) 2,926 5.1 -13.1°
